User: anonymous   Login
Location: Unspecified
(0.0000°N, 0.0000°E)
Time: 05:43:40
(UTC+00:00)
Language:

STARLINK-3086 - Orbit

View from above orbital plane
View from above orbital plane
View from above satellite
View from above satellite

Ground track
Ground track

The orbit is defined by the following mean orbital elements,

1 49178U          26145.32523323 +.00000000 +00000-0 -48212-3 0 00004
2 49178  69.9995 101.2189 0003193 265.9348  94.1446 14.98288215    09
Epoch (UTC): 25 May 2026 07:48:20
Eccentricity: 0.0003193
inclination: 69.9995°
perigee height: 570 km
apogee height: 574 km
right ascension of ascending node: 101.2189°
argument of perigee: 265.9348°
revolutions per day: 14.98288215
mean anomaly at epoch: 94.1446°

The dashed part of the orbit path shows where the satellite is in the earth's shadow,  

DLR